Location: Pampisford
(52.1167°N, 0.1833°E)
Time: 17:50:49
(UTC+00:00)

Daily predictions for brighter satellites

Satellite Brightness Start Highest point End
(mag) Time Altitude Azimuth Time Altitude Azimuth Time Altitude Azimuth
ADEOS Rocket 4.1 17:52:14 10° NNE 17:59:17 36° E 18:06:15 10° SSE
Envisat 3.8 17:54:44 10° S 17:59:44 59° W 18:04:48 10° NNW
STARLINK-34 3.7 17:56:43 10° SW 18:00:09 46° SSE 18:03:34 10° E
STARLINK-81 4.2 17:56:33 10° SW 18:00:20 41° SSE 18:04:08 10° E
CZ-4 R/B 4.4 17:56:16 10° SSE 18:00:22 75° ENE 18:04:32 10° N
STARLINK-54 4.1 17:58:19 10° SW 18:02:09 44° SSE 18:06:00 10° ENE
Cosmos 1777 Rocket 4.0 17:57:17 10° NNW 18:02:37 79° ENE 18:07:53 10° SSE
STARLINK-77 4.2 17:59:50 10° SW 18:03:39 42° SSE 18:07:29 10° ENE
Cosmos 1725 Rocket 4.0 17:58:09 10° S 18:04:12 62° E 18:10:20 10° NNE
SJ 16-02 2.8 18:01:08 10° N 18:04:20 19° NE 18:07:29 10° E
STARLINK-25 4.1 18:01:28 10° SW 18:05:17 43° SSE 18:09:07 10° ENE
Cosmos 1633 2.7 18:02:51 10° SSW 18:06:27 79° W 18:10:06 10° N
Cosmos 1992 Rocket 4.3 18:01:42 10° SSW 18:06:56 73° WNW 18:12:13 10° NNE
STARLINK-33 3.2 18:03:48 10° WSW 18:07:03 62° SSE 18:10:18 10° ENE
STARLINK-71 4.0 18:03:16 10° SW 18:07:08 47° SSE 18:11:01 10° ENE
STARLINK-79 4.1 18:04:43 10° SW 18:08:34 45° SSE 18:12:25 10° ENE
STARLINK-66 3.1 18:05:49 10° WSW 18:09:04 64° SSE 18:12:16 10° ENE
STARLINK-55 3.1 18:06:01 10° WSW 18:09:16 65° SSE 18:12:28 10° ENE
STARLINK-78 4.0 18:06:24 10° SW 18:10:15 46° SSE 18:14:05 10° ENE
STARLINK-28 3.1 18:07:40 10° WSW 18:10:55 69° SSE 18:14:03 11° ENE
STARLINK-1007 3.9 18:08:08 10° SW 18:11:06 34° SSE 18:13:54 11° E
Aureole 2 Rocket 2.9 18:09:05 10° SSE 18:11:17 24° ESE 18:13:33 10° NE
Cosmos 2061 Rocket 4.1 18:05:10 10° S 18:11:36 85° E 18:18:00 10° N
STARLINK-57 4.0 18:08:06 10° SW 18:12:00 48° SSE 18:15:46 11° ENE
Cosmos 2297 3.9 18:07:07 10° SSW 18:12:47 80° WNW 18:18:28 10° NNE
STARLINK-49 4.0 18:09:38 10° SW 18:13:31 48° SSE 18:17:13 11° ENE
HJ-1C 4.3 18:10:48 10° SE 18:13:38 27° ENE 18:16:30 10° N
STARLINK-27 4.0 18:11:17 10° SW 18:15:10 49° SSE 18:18:49 11° ENE
Cosmos 1812 2.6 18:11:30 10° N 18:15:24 77° E 18:19:15 10° SSE
STARLINK-74 3.9 18:12:56 10° SW 18:16:50 50° SSE 18:20:25 12° ENE
Cosmos 2263 Rocket 4.5 18:15:59 10° NNW 18:17:39 11° N 18:19:21 10° NNE
STARLINK-39 3.9 18:14:33 10° SW 18:18:28 51° SSE 18:22:00 12° E
SJ-6B 4.4 18:16:54 11° E 18:19:07 16° ENE 18:21:30 10° NNE
YAOGAN 1 2.5 18:15:19 10° SSE 18:19:39 82° ENE 18:24:00 10° NNW
Cosmos 2369 Rocket 2.6 18:14:24 10° S 18:19:44 44° ESE 18:25:07 10° NE
STARLINK-42 3.0 18:16:35 10° WSW 18:19:49 67° SSE 18:22:34 13° ENE
STARLINK-31 3.9 18:16:13 10° SW 18:20:08 52° SSE 18:23:37 13° E
Cosmos 2285 Rocket 4.0 18:14:12 10° NNW 18:20:34 67° ENE 18:26:56 10° SE
Cosmos 1864 Rocket 4.4 18:14:58 10° S 18:21:08 81° E 18:27:18 10° NNE
SL-27 R/B 3.0 18:18:25 10° NNW 18:21:44 59° WSW 18:25:00 10° S
STARLINK-69 3.8 18:18:00 10° SW 18:21:56 55° SSE 18:25:22 13° ENE
Tsikada Rocket 4.2 18:16:39 10° N 18:23:04 87° W 18:29:30 10° S
STARLINK-21 3.8 18:19:31 10° SW 18:23:26 54° SSE 18:26:48 14° E
Cosmos 1802 Rocket 4.4 18:17:49 10° SSW 18:24:07 72° WNW 18:30:34 10° N
Cosmos 1633 Rocket 3.0 18:20:03 10° S 18:24:20 62° E 18:28:39 10° NNE
STARLINK-1010 3.6 18:21:24 10° SW 18:24:29 42° SSE 18:26:51 15° E
SKYMED 2 3.6 18:20:52 10° NNE 18:25:15 89° ESE 18:29:36 10° SSW
STARLINK-45 3.7 18:21:20 10° SW 18:25:17 58° SSE 18:28:36 14° ENE
USA 234 3.6 18:19:11 10° ENE 18:25:35 59° N 18:32:00 10° WNW
CZ-2D R/B 3.2 18:22:01 10° SSE 18:25:53 77° ENE 18:29:48 10° N
STARLINK-70 3.7 18:22:54 10° SW 18:26:51 58° SSE 18:30:06 15° E
Cosmos 1833 4.2 18:21:09 10° NNW 18:26:56 67° NE 18:32:38 10° SE
Cosmos 1862 3.4 18:23:31 10° SSW 18:27:31 82° W 18:31:31 10° N
STARLINK-76 3.8 18:24:27 10° SW 18:28:24 57° SSE 18:31:34 15° E
STARLINK-23 3.7 18:26:06 10° SW 18:30:03 58° SSE 18:33:10 16° E
STARLINK-29 4.0 18:27:07 10° W 18:30:23 44° SSW 18:33:39 10° SE
Cosmos 1666 Rocket 3.6 18:26:34 10° S 18:31:03 86° E 18:35:33 10° NNE
STARLINK-32 3.7 18:27:45 10° SW 18:31:43 59° SSE 18:34:46 16° E
Cosmos 1933 Rocket 4.2 18:27:49 10° SSE 18:31:45 33° E 18:35:42 10° NNE
USA 229 DEB 3.7 18:26:41 10° SSW 18:33:13 71° SE 18:40:08 10° NE
USA 229 3.7 18:26:48 10° SSW 18:33:19 71° SE 18:40:14 10° NE
STARLINK-40 3.7 18:29:22 10° SW 18:33:20 60° SSE 18:36:20 17° E
Cosmos 44 3.4 18:29:30 10° NW 18:33:52 67° SW 18:38:20 10° SSE
STARLINK-44 3.7 18:31:01 10° WSW 18:34:59 61° SSE 18:37:56 17° E
STARLINK-37 3.6 18:32:46 10° WSW 18:36:46 64° SSE 18:39:39 18° E
STARLINK-64 3.2 18:33:18 10° WSW 18:36:54 74° SSE 18:39:22 19° E
STARLINK-1029 3.6 18:34:27 10° SW 18:37:27 40° SSE 18:39:10 21° E
Cosmos 2016 Rocket 4.4 18:31:41 10° SSW 18:37:44 68° WNW 18:43:54 10° N
STARLINK-36 3.6 18:34:19 10° WSW 18:38:18 63° SSE 18:41:07 18° E
STARLINK-75 3.0 18:34:56 10° WSW 18:38:20 81° SSE 18:40:35 20° ENE
STARLINK-1016 3.3 18:35:18 10° SW 18:38:28 50° SSE 18:40:23 21° E
STARLINK-1008 3.3 18:35:17 10° SW 18:38:30 51° SSE 18:40:28 21° E
STARLINK-68 3.6 18:36:08 10° WSW 18:40:08 67° SSE 18:42:54 19° E
NOSS 3-1 (A) 3.5 18:35:00 10° SSW 18:40:25 53° SE 18:46:43 10° NE
Cosmos 1346 Rocket 3.2 18:36:45 10° SSE 18:40:27 38° E 18:44:09 10° NNE
STARLINK-22 3.1 18:37:26 10° WSW 18:40:48 74° SSE 18:42:54 21° E
STARLINK-1025 3.3 18:38:20 10° SW 18:41:32 52° SSE 18:43:21 22° E
STARLINK-63 3.6 18:37:41 10° WSW 18:41:41 67° SSE 18:44:23 20° E
SJ-11-01 4.4 18:37:23 10° SE 18:41:54 51° ENE 18:46:26 10° N
USA 116 3.7 18:38:09 10° NNE 18:42:03 74° ESE 18:46:26 10° S
STARLINK-41 3.0 18:38:54 10° WSW 18:42:16 78° SSE 18:44:18 22° E
STARLINK-52 4.1 18:39:19 10° W 18:42:32 41° SSW 18:45:24 12° SE
STARLINK-61 3.4 18:39:04 10° WSW 18:42:59 85° SSE 18:45:35 20° ENE
STARLINK-1017 3.3 18:39:51 10° SW 18:43:03 53° SSE 18:44:49 23° E
Ariane Rocket 3.1 18:38:14 10° SE 18:43:14 57° ENE 18:48:15 10° N
STARLINK-35 3.6 18:39:15 10° WSW 18:43:15 67° SSE 18:45:52 20° E
STARLINK-48 3.5 18:40:01 10° W 18:43:56 78° N 18:46:26 21° E
STARLINK-26 3.2 18:41:23 10° W 18:44:52 77° N 18:46:54 23° ENE
Cosmos 2263 4.4 18:39:20 10° S 18:44:53 50° ESE 18:50:26 10° NE
STARLINK-51 3.6 18:40:55 10° WSW 18:44:55 68° SSE 18:47:29 21° E
ARGOS 3.6 18:40:46 10° SE 18:45:46 40° ENE 18:50:49 10° N
STARLINK-30 3.6 18:42:34 10° WSW 18:46:34 69° SSE 18:49:04 22° E
CSL-04 Rocket 4.1 18:41:49 10° S 18:47:20 70° WSW 18:52:48 10° NNW
STARLINK-1048 3.2 18:44:28 10° SW 18:47:42 57° SSE 18:49:18 26° E
STARLINK 1040 2.7 18:44:57 10° WSW 18:47:44 61° SSE 18:48:51 30° E
CENTAUR R/B 3.8 18:41:28 10° NW 18:48:07 37° NNE 18:54:06 16° ENE
STARLINK-72 3.5 18:44:12 10° WSW 18:48:12 70° SSE 18:50:39 22° E
STARLINK-1049 3.2 18:46:01 10° WSW 18:49:16 58° SSE 18:50:48 27° E
STARLINK-50 3.5 18:45:51 10° WSW 18:49:51 71° SSE 18:52:14 23° E
STARLINK-1051 3.1 18:47:38 10° WSW 18:50:52 59° SSE 18:52:22 28° E
STARLINK-1028 3.1 18:47:37 10° WSW 18:50:52 59° SSE 18:52:22 28° E
STARLINK-59 3.5 18:47:35 10° WSW 18:51:37 73° SSE 18:53:56 24° E
STARLINK-1027 4.4 18:48:22 10° SW 18:52:19 38° SSE 18:54:17 24° E
STARLINK-1021 3.1 18:49:15 10° WSW 18:52:30 60° SSE 18:53:57 29° E
Cosmos 2233 Rocket 4.0 18:46:50 10° S 18:52:59 88° E 18:59:15 10° N
STARLINK-56 3.5 18:49:08 10° WSW 18:53:09 73° SSE 18:55:24 25° E
STARLINK-1014 3.4 18:50:09 10° SW 18:53:33 54° SSE 18:55:03 29° E
STARLINK-1019 3.1 18:50:51 10° WSW 18:54:07 61° SSE 18:55:30 30° E
Cosmos 990 Rocket 4.2 18:49:19 10° NNW 18:54:21 50° ENE 18:58:20 16° SE
STARLINK-73 3.5 18:50:48 10° WSW 18:54:49 74° SSE 18:57:00 26° E
STARLINK-1012 3.1 18:52:34 10° WSW 18:55:50 63° SSE 18:57:09 32° E
STARLINK-38 3.5 18:52:28 10° WSW 18:56:30 75° SSE 18:58:37 27° E
H-2A R/B 2.3 18:51:24 10° SE 18:56:38 53° ENE 19:01:56 10° N
DMSP B5D1-3 4.4 18:52:05 10° NNE 18:57:16 75° ESE 19:02:24 10° S
STARLINK-65 3.5 18:54:06 10° WSW 18:58:08 76° SSE 19:00:12 27° E
Meteor 1-18 Rocket 4.4 18:52:31 10° N 18:58:22 55° ENE 19:04:06 10° SSE
ATLAS 3B R/B 3.8 18:53:10 10° NW 18:58:58 31° N 19:03:34 15° ENE
STARLINK-1026 3.0 18:55:51 10° WSW 18:59:07 65° SSE 19:00:19 35° E
ARGOS Delta rocket 4.3 18:57:38 22° ESE 18:59:39 33° ENE 19:03:40 10° N
STARLINK-53 3.5 18:55:50 10° WSW 18:59:52 78° SSE 19:01:52 28° E
Cosmos 2297 Rocket 3.4 18:55:33 10° NNW 19:00:10 25° NE 19:02:16 20° ENE
STARLINK-1013 3.0 18:57:28 10° WSW 19:00:46 66° SSE 19:01:55 36° E
STARLINK-1032 4.3 18:57:04 10° SW 19:00:53 37° SSE 19:02:15 28° ESE
Cosmos 1937 Rocket 3.8 18:57:15 10° NNW 19:02:20 45° NE 19:05:15 23° ESE
MOS 1 4.3 18:56:45 10° SSE 19:02:20 63° ENE 19:07:55 10° NNW
STARLINK-1009 3.0 18:59:07 10° WSW 19:02:25 67° SSE 19:03:31 38° E
STARLINK-43 3.2 18:59:36 10° WNW 19:03:20 88° SSW 19:04:52 34° ESE
Meteor 1-20 Rocket 4.3 18:58:42 10° S 19:03:58 51° E 19:09:20 10° NNE
STARLINK-1015 3.0 19:00:49 10° WSW 19:04:07 69° SSE 19:05:09 40° E
NOSS 2-3 (C) 3.9 19:01:02 10° SSW 19:05:21 56° SE 19:09:00 18° NE
STARLINK-1011 4.2 19:01:58 10° SW 19:05:49 39° SSE 19:07:01 31° ESE
Okean 1 3.5 19:02:04 10° N 19:05:59 48° ENE 19:08:21 21° SE
Lacrosse 5 rocket 2.3 19:02:40 10° WNW 19:07:01 45° N 19:09:19 25° ENE
Lacrosse 4 Rocket 3.3 19:04:26 10° W 19:08:13 29° NW 19:12:06 10° NNE
Cosmos 2278 Rocket 4.4 19:04:09 10° W 19:08:17 20° NNW 19:12:26 10° NNE
Cosmos 2242 Rocket 3.8 19:05:45 10° NNW 19:10:18 77° W 19:14:51 10° S
STARLINK-1036 4.1 19:06:53 10° SW 19:10:47 41° SSE 19:11:50 34° ESE
Cosmos 1470 Rocket 3.6 19:06:57 10° SSW 19:11:19 81° WNW 19:15:45 10° N
COSMO-SKYMED 1 4.3 19:09:13 10° N 19:13:10 34° WNW 19:17:06 10° SW
Resurs 01 Rocket 2.7 19:15:30 26° ENE 19:15:30 26° ENE 19:18:59 10° N
STARLINK-1044 4.1 19:11:47 10° SW 19:15:43 44° SSE 19:16:35 38° ESE
SL-08 RB Rocket 3.9 19:14:23 30° ESE 19:16:08 45° ENE 19:20:25 10° N
Meteor 1-14 Rocket 4.4 19:11:11 10° SSE 19:16:22 43° E 19:21:36 10° NNE
Cosmos 1943 Rocket 2.5 19:11:54 10° SW 19:17:27 66° NW 19:22:59 10° NNE
Cosmos 2227 Rocket 3.2 19:13:54 10° NNW 19:18:44 28° NE 19:20:08 25° ENE
Gbstr 26 Del rocket 4.4 19:15:27 10° S 19:18:24 23° SE 19:18:24 23° SE
STARLINK-80 3.3 19:15:13 10° W 19:19:04 81° N 19:20:03 48° E
Genesis I 4.0 19:17:50 10° NNW 19:21:25 34° NE 19:21:45 33° NE
CZ-4 R/B 4.2 19:18:21 10° SW 19:21:36 21° W 19:24:50 10° NW
STARLINK-1031 3.8 19:17:56 10° SW 19:21:52 50° SSE 19:22:31 44° ESE
USA 238 DEB 4.2 19:15:57 10° NW 19:22:49 50° NNE 19:26:20 29° E
USA 238 4.2 19:16:03 10° NW 19:22:54 50° NNE 19:26:24 29° E
Cosmos 1340 3.2 19:20:35 10° SSW 19:24:18 58° WNW 19:28:02 10° N
Cosmos 1513 Rocket 4.4 19:18:45 10° S 19:24:46 65° E 19:30:53 10° NNE
STARLINK-1037 3.9 19:21:37 10° SW 19:25:36 49° SSE 19:26:07 46° SE
CZ-2C R/B 3.2 19:20:16 10° SSE 19:26:04 75° ENE 19:31:45 10° NNW
Cosmos 405 2.9 19:24:16 10° NNW 19:27:49 83° W 19:29:30 29° S
STARLINK-24 3.4 19:25:56 10° WSW 19:29:58 87° NNW 19:30:47 56° ENE
STARLINK-1059 3.8 19:26:36 10° SW 19:30:37 51° SSE 19:30:58 50° SE
STARLINK-1023 2.9 19:28:03 10° WSW 19:31:04 80° WSW 19:31:04 80° WSW
Cosmos 1703 Rocket 3.8 19:27:05 10° NNW 19:31:32 73° W 19:36:00 10° S
Okean 1-7 3.0 19:27:57 10° NNW 19:32:16 82° W 19:36:19 12° S
FREGAT/IRIS 3.0 19:33:05 55° WNW 19:33:05 55° WNW 19:35:32 10° NNW
NOSS 3-1 (C) 3.8 19:27:43 10° WSW 19:33:25 64° NW 19:39:31 13° NE
COSMOS 2487 3.2 19:30:10 10° NNW 19:33:33 50° WSW 19:35:18 24° S
STARLINK-58 3.1 19:30:32 10° W 19:34:06 80° N 19:34:19 76° NE
Cosmos 1891 Rocket 4.4 19:29:02 10° S 19:35:12 77° E 19:41:34 10° NNE
STARLINK-1057 3.7 19:31:32 10° SW 19:35:35 54° SSE 19:35:44 54° SE
Meteor 1-19 Rocket 4.2 19:29:49 10° NNW 19:35:44 81° ENE 19:40:38 14° SSE
STARLINK-62 3.1 19:32:13 10° W 19:35:47 79° N 19:35:55 77° NNE
STARLINK-34 3.1 19:33:52 10° W 19:37:25 79° N 19:37:30 78° NNE
Cosmos 44 Rocket 3.1 19:34:15 10° NW 19:39:01 87° SW 19:40:28 45° SE
SPOT 3 Rocket 3.4 19:36:24 28° SSE 19:39:09 73° ENE 19:44:23 10° NNW
STARLINK-81 3.4 19:35:16 10° W 19:39:18 86° NNW 19:39:45 70° ENE
Cosmos 372 Rocket 4.4 19:34:25 10° NNW 19:39:26 41° NE 19:39:50 40° ENE
Meteor 2-4 Rocket 3.8 19:33:54 10° N 19:39:45 60° ENE 19:42:12 35° SE
Cosmos 2298 Rocket 4.5 19:35:14 10° NNW 19:40:18 41° NE 19:40:46 40° ENE
STARLINK-1034 3.7 19:36:28 10° SW 19:40:30 57° SSE 19:40:30 57° SSE
STARLINK-54 3.4 19:37:08 10° W 19:41:10 84° N 19:41:33 72° ENE
Cosmos 468 Rocket 4.0 19:36:29 10° S 19:41:37 54° ESE 19:44:32 25° NE
Cosmos 2219 3.5 19:36:05 10° NNW 19:41:39 47° NE 19:42:43 42° E
STARLINK-77 3.4 19:38:36 10° W 19:42:38 84° N 19:42:57 75° ENE
STARLINK-33 3.4 19:40:09 10° W 19:43:00 61° WNW 19:43:00 61° WNW
SJ 16-02 1.4 19:39:02 10° NNW 19:43:28 76° WSW 19:45:09 37° S
Cosmos 1869 Rocket 3.4 19:39:15 10° S 19:43:36 65° E 19:47:57 10° NNE
STARLINK-25 3.4 19:40:15 10° W 19:44:17 84° N 19:44:32 77° NE
USA 186 3.7 19:46:30 19° NNW 19:46:30 19° NNW 19:47:27 10° NNW
ADEOS Rocket 4.0 19:37:31 10° NNE 19:45:10 67° WNW 19:52:47 10° SSW
STARLINK-66 3.5 19:42:11 10° W 19:44:57 57° WNW 19:44:57 57° WNW
STARLINK-1068 3.7 19:41:25 10° SW 19:45:17 59° S 19:45:17 59° S
STARLINK-55 3.6 19:42:23 10° W 19:45:08 57° WNW 19:45:08 57° WNW
Meteor 1-25 Rocket 4.3 19:40:16 10° SSW 19:45:58 81° WNW 19:51:37 10° NNE
STARLINK-71 3.4 19:42:07 10° W 19:46:10 82° N 19:46:21 79° NE
STARLINK-1007 3.7 19:43:51 10° W 19:46:21 51° W 19:46:21 51° W
STARLINK-28 3.7 19:44:02 10° W 19:46:43 54° WNW 19:46:43 54° WNW
STARLINK-79 3.4 19:43:32 10° W 19:47:35 83° N 19:47:41 81° NNE
Cosmos 1898 Rocket 3.7 19:43:53 10° NNW 19:49:03 67° WSW 19:52:07 24° S
STARLINK-78 3.4 19:45:15 10° W 19:49:17 82° N 19:49:19 82° N
Cosmos 1656 Rocket 3.6 19:44:42 10° SSW 19:50:15 87° WNW 19:55:56 10° NNE
STARLINK-57 3.5 19:47:00 10° W 19:51:00 81° NNW 19:51:00 81° NNW
STARLINK-49 3.5 19:48:31 10° W 19:52:28 80° NNW 19:52:28 80° NNW
SJ-6B 3.1 19:52:30 46° SSW 19:53:21 61° WSW 19:57:08 10° NNW
STARLINK-27 3.5 19:50:11 10° W 19:54:04 78° NW 19:54:04 78° NW
Cosmos 489 Rocket 4.4 19:48:34 10° SSW 19:54:54 75° ESE 20:01:14 10° NNE
STARLINK-1060 3.9 19:51:20 10° WSW 19:54:51 57° SSW 19:54:51 57° SSW
STARLINK-74 3.6 19:51:51 10° W 19:55:40 76° NW 19:55:40 76° NW
STARLINK-42 4.2 19:52:49 10° W 19:55:05 41° WNW 19:55:05 41° WNW
STARLINK-39 3.6 19:53:30 10° W 19:57:15 74° WNW 19:57:15 74° WNW
Nadezhda 4 Rocket 4.0 19:51:47 10° NNW 19:58:06 84° W 20:03:47 13° S
Cosmos 2150 Rocket 4.3 19:53:35 10° NNW 19:58:50 51° ENE 19:58:50 51° ENE
STARLINK-31 3.7 19:55:11 10° W 19:58:51 71° WNW 19:58:51 71° WNW
STARLINK-1030 4.0 19:56:19 10° WSW 19:59:40 54° SW 19:59:40 54° SW
Cosmos 1464 Rocket 4.2 19:54:15 10° SSW 20:00:37 76° WNW 20:07:03 10° N
STARLINK-69 3.8 19:57:00 10° W 20:00:36 68° WNW 20:00:36 68° WNW
STARLINK-21 3.8 19:58:29 10° W 20:02:02 66° WNW 20:02:02 66° WNW
Meteor 1-13 Rocket 4.2 19:57:42 10° N 20:03:37 66° ENE 20:04:16 61° ESE
Cosmos 2369 Rocket 3.3 19:58:25 10° WSW 20:03:49 43° NW 20:09:16 10° NNE
Cosmos 2263 Rocket 4.1 20:00:47 10° NNW 20:04:13 16° NNE 20:04:48 16° NNE
STARLINK-45 3.9 20:00:22 10° W 20:03:51 63° WNW 20:03:51 63° WNW
Cosmos 2026 Rocket 3.9 19:58:44 10° N 20:04:53 57° ENE 20:05:16 56° E
STARLINK-1020 4.2 20:01:15 10° WSW 20:04:25 50° SW 20:04:25 50° SW
STARLINK-70 4.0 20:01:56 10° W 20:05:21 61° WNW 20:05:21 61° WNW
STARLINK-1047 4.2 20:02:10 10° WSW 20:05:23 51° SW 20:05:23 51° SW
NOSS 2-3 (E) 4.2 20:02:13 10° WSW 20:06:43 63° NW 20:08:40 37° NNE
STARLINK-76 4.0 20:03:28 10° W 20:06:49 59° WNW 20:06:49 59° WNW
USA 234 3.2 20:06:31 50° E 20:08:19 74° NNE 20:14:51 10° WNW
Cosmos 1763 Rocket 3.8 20:03:32 10° SSW 20:07:25 50° S 20:07:25 50° S
STARLINK-23 4.1 20:05:08 10° W 20:08:25 56° WNW 20:08:25 56° WNW
STARLINK-1052 4.4 20:06:15 10° WSW 20:09:14 46° SW 20:09:14 46° SW
STARLINK-32 4.2 20:06:48 10° W 20:10:00 54° WNW 20:10:00 54° WNW
Cosmos 2221 Rocket 3.7 20:07:26 10° NNW 20:11:44 76° NW 20:11:44 76° NW
STARLINK-40 4.3 20:08:26 10° W 20:11:34 52° WNW 20:11:34 52° WNW
MetOp-A 4.1 20:11:17 48° S 20:12:50 79° WSW 20:18:14 10° NNW
STARLINK-44 4.3 20:10:05 10° W 20:13:10 50° WNW 20:13:10 50° WNW
CZ-2C R/B 4.3 20:09:22 10° NNE 20:11:10 21° NNE 20:11:10 21° NNE
NOSS 3-2 (A) 3.9 20:08:31 10° NW 20:15:44 73° NE 20:17:38 54° ESE
Cosmos 1125 Rocket 4.3 20:10:46 10° NNW 20:14:49 39° NNE 20:14:49 39° NNE
STARLINK-37 4.4 20:11:53 10° W 20:14:53 48° WNW 20:14:53 48° WNW
NOSS 3-2 (C) 4.1 20:09:42 10° NW 20:16:46 60° NE 20:18:24 51° E
STARLINK-36 4.5 20:13:25 10° W 20:16:22 46° WNW 20:16:22 46° WNW
Terra 4.1 20:22:36 13° NNE 20:22:36 13° NNE 20:23:22 10° N
Cosmos 2034 Rocket 4.1 20:14:21 10° SSW 20:20:31 74° WNW 20:26:42 10° N
NOSS 2-3 (D) 4.4 20:17:17 10° WSW 20:21:46 56° NW 20:22:59 44° NNE
ARGOS 4.4 20:20:59 10° SSW 20:26:03 40° W 20:31:10 10° NNW
BREEZE-M DEB (TANK) 3.6 20:07:30 10° W 20:27:02 73° SSW 20:27:48 65° SE
NOSS 3-1 (A) 4.2 20:25:42 10° WSW 20:31:25 50° NNW 20:35:03 26° NNE
H-2A R/B 3.9 20:31:39 10° SSW 20:36:19 30° W 20:41:04 10° NNW
Spot 2 Rocket 4.4 20:40:58 42° N 20:40:58 42° N 20:44:22 10° NNW
CENTAUR R/B 3.1 20:32:35 10° NW 20:40:14 65° NE 20:41:17 60° ENE
Cosmos 1092 Rocket 4.3 20:35:23 10° NNW 20:41:40 65° W 20:43:31 45° SSW
Lacrosse 5 4.4 20:37:46 10° SSW 20:37:46 10° SSW 20:37:46 10° SSW
Cosmos 1428 Rocket 4.4 20:37:02 10° N 20:42:49 80° NNW 20:42:49 80° NNW
Cosmos 2297 Rocket 2.4 20:39:19 10° NNW 20:44:06 64° NNW 20:44:06 64° NNW
Lacrosse 5 rocket 2.9 20:42:07 10° WNW 20:44:58 37° NW 20:44:58 37° NW
Cosmos 1634 Rocket 4.4 20:49:38 54° NNE 20:49:38 54° NNE 20:54:26 10° N
Lacrosse 4 Rocket 4.3 20:46:35 10° NW 20:48:20 12° NNW 20:49:35 11° N
ATLAS 3B R/B 3.1 20:44:34 10° NW 20:50:49 51° NNE 20:50:49 51° NNE
Resurs 01 Rocket 3.2 20:53:04 34° NW 20:53:04 34° NW 20:55:54 10° NNW
Cosmos 1943 Rocket 4.5 20:58:16 10° WNW 21:02:17 20° NNW 21:06:18 10° NNE
Cosmos 2227 Rocket 2.9 20:57:45 10° NNW 21:01:58 51° NW 21:01:58 51° NW
USA 238 DEB 4.0 21:07:03 10° NW 21:13:47 64° WSW 21:13:47 64° WSW
USA 238 4.0 21:07:10 10° NW 21:13:52 65° WSW 21:13:52 65° WSW
SJ 16-02 4.4 21:20:30 10° W 21:21:13 10° W 21:21:53 10° W
Cosmos 2263 Rocket 4.2 21:44:15 10° NNW 21:46:30 23° N 21:46:30 23° N
USA 234 4.3 21:53:52 38° W 21:53:52 38° W 21:57:58 10° WNW
CENTAUR R/B 4.1 22:23:26 10° NW 22:28:28 39° WNW 22:28:28 39° WNW
ATLAS 3B R/B 4.4 22:35:23 10° NW 22:38:05 26° WNW 22:38:05 26° WNW
